Location: Joplin, MO
(37.0842°N, 94.5133°W)
Time: 21:04:30
(UTC+02:00)

Courier 1B Rocket - Pass Details

Date: 01 April 2023
Orbit: 920 x 1202 km, 28.2° (Epoch: 05 June)

Event Time Altitude Azimuth Distance (km) Brightness Sun altitude
Rises 06:17:28 0° 264° (W) 3,849 8.5 -39.3°
Reaches altitude 10° 06:20:50 10° 251° (WSW) 2,840 7.6 -39.8°
Enters shadow 06:21:19 12° 248° (WSW) 2,712 7.5 -39.9°
Maximum altitude 06:26:04 23° 201° (SSW) 1,965 - -40.5°
Drops below altitude 10° 06:31:02 10° 151° (SSE) 2,690 - -41.1°
Sets 06:34:09 0° 137° (SE) 3,599 - -41.5°
